User: anonymous   Login
Location: Unspecified
(0.0000°N, 0.0000°E)
Time: 20:36:35
(UTC+00:00)
Language:

NOSS 3-2 (C) - Orbit

View from above orbital plane
View from above orbital plane
View from above satellite
View from above satellite

Ground track
Ground track

The orbit data is extracted from the following two-line orbital elements,

1 28097U 03054C   24224.83028283 0.00000500  00000-0  38876-3 0    09
2 28097  63.3883 118.0766 0532885   3.9106 356.0894 13.41016672    04
Epoch (UTC): 11 August 2024 19:55:36
Eccentricity: 0.0532885
inclination: 63.3883°
perigee height: 707 km
apogee height: 1504 km
right ascension of ascending node: 118.0766°
argument of perigee: 3.9106°
revolutions per day: 13.41016672
mean anomaly at epoch: 356.0894°
orbit number at epoch: 0

The dashed part of the orbit path shows where the satellite is in the earth's shadow,  

DLR